Time,TemperatureF,DewpointF,PressureIn,WindDirection,WindDirectionDegrees,WindSpeedMPH,WindSpeedGustMPH,Humidity,HourlyPrecipIn,Conditions,Clouds,dailyrainin,SoftwareType,DateUTC
2013-02-19 00:04:00,45.7,23.4,29.81,West,270,4.0,8.0,41,0.00,,,0.00,meteohub,2013-02-19 08:04:00,
2013-02-19 00:09:00,45.9,24.1,29.81,West,270,4.0,6.0,42,0.00,,,0.00,meteohub,2013-02-19 08:09:00,
2013-02-19 00:14:00,46.0,24.3,29.81,NW,315,7.0,7.0,42,0.00,,,0.00,meteohub,2013-02-19 08:14:00,
2013-02-19 00:19:00,46.0,24.3,29.81,NW,315,7.0,9.0,42,0.00,,,0.00,meteohub,2013-02-19 08:19:00,
2013-02-19 00:24:00,46.0,24.3,29.81,NW,315,8.0,11.0,42,0.00,,,0.00,meteohub,2013-02-19 08:24:00,
2013-02-19 00:29:00,46.0,24.3,29.81,NW,315,8.0,11.0,42,0.00,,,0.00,meteohub,2013-02-19 08:29:00,
2013-02-19 00:34:00,46.0,24.3,29.81,West,270,4.0,11.0,42,0.00,,,0.00,meteohub,2013-02-19 08:34:00,
2013-02-19 00:40:00,45.9,23.5,29.81,NW,315,8.0,11.0,41,0.00,,,0.00,meteohub,2013-02-19 08:40:00,
2013-02-19 00:45:00,46.0,23.0,29.81,NW,315,8.0,8.0,40,0.00,,,0.00,meteohub,2013-02-19 08:45:00,
2013-02-19 00:50:00,46.0,20.5,29.81,West,270,4.0,8.0,36,0.00,,,0.00,meteohub,2013-02-19 08:50:00,
2013-02-19 00:55:00,46.0,19.2,29.81,NW,315,8.0,8.0,34,0.00,,,0.00,meteohub,2013-02-19 08:55:00,
2013-02-19 01:00:00,46.4,18.9,29.81,West,270,6.0,11.0,33,0.00,,,0.00,meteohub,2013-02-19 09:00:00,
2013-02-19 01:05:00,46.6,17.6,29.81,NW,315,10.0,13.0,31,0.00,,,0.00,meteohub,2013-02-19 09:05:00,
2013-02-19 01:10:00,46.8,16.9,29.81,NW,315,5.0,13.0,30,0.00,,,0.00,meteohub,2013-02-19 09:10:00,
2013-02-19 01:15:00,46.8,16.9,29.80,West,270,4.0,13.0,30,0.00,,,0.00,meteohub,2013-02-19 09:15:00,
2013-02-19 01:21:00,46.8,16.9,29.80,NW,315,2.0,11.0,30,0.00,,,0.00,meteohub,2013-02-19 09:21:00,
2013-02-19 01:26:00,46.6,16.9,29.80,West,270,3.0,8.0,30,0.00,,,0.00,meteohub,2013-02-19 09:26:00,
2013-02-19 01:31:00,46.6,16.9,29.80,West,270,4.0,5.0,30,0.00,,,0.00,meteohub,2013-02-19 09:31:00,
2013-02-19 01:36:00,46.4,16.7,29.81,NW,315,4.0,4.0,30,0.00,,,0.00,meteohub,2013-02-19 09:36:00,
2013-02-19 01:41:00,46.4,16.7,29.81,NW,315,3.0,5.0,30,0.00,,,0.00,meteohub,2013-02-19 09:41:00,
2013-02-19 01:46:00,46.4,17.4,29.80,NW,315,2.0,5.0,31,0.00,,,0.00,meteohub,2013-02-19 09:46:00,
2013-02-19 01:51:00,46.4,17.4,29.80,North,0,2.0,5.0,31,0.00,,,0.00,meteohub,2013-02-19 09:51:00,
2013-02-19 01:56:00,46.4,17.4,29.80,West,270,5.0,5.0,31,0.00,,,0.00,meteohub,2013-02-19 09:56:00,
2013-02-19 02:01:00,46.4,17.4,29.80,West,270,2.0,5.0,31,0.00,,,0.00,meteohub,2013-02-19 10:01:00,
2013-02-19 02:07:00,46.4,17.4,29.80,West,270,2.0,5.0,31,0.00,,,0.00,meteohub,2013-02-19 10:07:00,
2013-02-19 02:12:00,46.2,15.6,29.80,West,270,2.0,5.0,29,0.00,,,0.00,meteohub,2013-02-19 10:12:00,
2013-02-19 02:17:00,46.0,16.3,29.79,West,270,0.0,2.0,30,0.00,,,0.00,meteohub,2013-02-19 10:17:00,
2013-02-19 02:22:00,46.0,16.3,29.79,West,270,0.0,2.0,30,0.00,,,0.00,meteohub,2013-02-19 10:22:00,
2013-02-19 02:27:00,45.9,16.9,29.80,South,180,0.0,2.0,31,0.00,,,0.00,meteohub,2013-02-19 10:27:00,
2013-02-19 02:32:00,45.7,16.7,29.79,West,270,0.0,2.0,31,0.00,,,0.00,meteohub,2013-02-19 10:32:00,
2013-02-19 02:37:00,45.7,16.7,29.79,NW,315,2.0,2.0,31,0.00,,,0.00,meteohub,2013-02-19 10:37:00,
2013-02-19 02:42:00,45.7,16.7,29.79,NW,315,0.0,2.0,31,0.00,,,0.00,meteohub,2013-02-19 10:42:00,
2013-02-19 02:47:00,45.7,16.7,29.79,NW,315,0.0,2.0,31,0.00,,,0.00,meteohub,2013-02-19 10:47:00,
2013-02-19 02:53:00,45.9,16.9,29.79,NW,315,0.0,2.0,31,0.00,,,0.00,meteohub,2013-02-19 10:53:00,
2013-02-19 02:58:00,45.9,16.9,29.79,West,270,1.0,3.0,31,0.00,,,0.00,meteohub,2013-02-19 10:58:00,
2013-02-19 03:03:00,45.9,16.9,29.79,West,270,4.0,4.0,31,0.00,,,0.00,meteohub,2013-02-19 11:03:00,
2013-02-19 03:08:00,46.0,14.0,29.78,West,270,4.0,5.0,27,0.00,,,0.00,meteohub,2013-02-19 11:08:00,
2013-02-19 03:13:00,46.2,13.3,29.78,West,270,4.0,5.0,26,0.00,,,0.00,meteohub,2013-02-19 11:13:00,
2013-02-19 03:18:00,46.4,15.1,29.78,West,270,4.0,5.0,28,0.00,,,0.00,meteohub,2013-02-19 11:18:00,
2013-02-19 03:23:00,46.8,14.5,29.78,West,270,2.0,5.0,27,0.00,,,0.00,meteohub,2013-02-19 11:23:00,
2013-02-19 03:28:00,46.8,14.5,29.78,West,270,0.0,5.0,27,0.00,,,0.00,meteohub,2013-02-19 11:28:00,
2013-02-19 03:33:00,46.8,15.4,29.78,West,270,0.0,5.0,28,0.00,,,0.00,meteohub,2013-02-19 11:33:00,
2013-02-19 03:38:00,46.6,15.3,29.78,West,270,1.0,3.0,28,0.00,,,0.00,meteohub,2013-02-19 11:38:00,
2013-02-19 03:44:00,46.4,15.1,29.77,West,270,0.0,2.0,28,0.00,,,0.00,meteohub,2013-02-19 11:44:00,
2013-02-19 03:49:00,46.2,12.4,29.77,West,270,2.0,2.0,25,0.00,,,0.00,meteohub,2013-02-19 11:49:00,
2013-02-19 03:54:00,46.0,12.2,29.77,West,270,1.0,2.0,25,0.00,,,0.00,meteohub,2013-02-19 11:54:00,
2013-02-19 03:59:00,45.9,12.0,29.77,West,270,2.0,2.0,25,0.00,,,0.00,meteohub,2013-02-19 11:59:00,
2013-02-19 04:04:00,45.9,12.0,29.77,West,270,2.0,2.0,25,0.00,,,0.00,meteohub,2013-02-19 12:04:00,
2013-02-19 04:09:00,45.7,11.8,29.77,West,270,1.0,2.0,25,0.00,,,0.00,meteohub,2013-02-19 12:09:00,
2013-02-19 04:14:00,45.5,12.6,29.77,West,270,2.0,2.0,26,0.00,,,0.00,meteohub,2013-02-19 12:14:00,
2013-02-19 04:20:00,45.5,12.6,29.77,West,270,2.0,2.0,26,0.00,,,0.00,meteohub,2013-02-19 12:20:00,
2013-02-19 04:25:00,45.7,13.6,29.76,West,270,3.0,3.0,27,0.00,,,0.00,meteohub,2013-02-19 12:25:00,
2013-02-19 04:30:00,46.0,14.0,29.77,West,270,4.0,4.0,27,0.00,,,0.00,meteohub,2013-02-19 12:30:00,
2013-02-19 04:35:00,46.2,14.9,29.77,West,270,4.0,6.0,28,0.00,,,0.00,meteohub,2013-02-19 12:35:00,
2013-02-19 04:40:00,46.2,15.6,29.76,West,270,2.0,6.0,29,0.00,,,0.00,meteohub,2013-02-19 12:40:00,
2013-02-19 04:45:00,46.2,14.9,29.76,West,270,1.0,5.0,28,0.00,,,0.00,meteohub,2013-02-19 12:45:00,
2013-02-19 04:50:00,46.2,14.9,29.76,NW,315,0.0,5.0,28,0.00,,,0.00,meteohub,2013-02-19 12:50:00,
2013-02-19 04:55:00,46.0,14.7,29.76,South,180,2.0,3.0,28,0.00,,,0.00,meteohub,2013-02-19 12:55:00,
2013-02-19 05:01:00,46.0,14.7,29.76,South,180,1.0,2.0,28,0.00,,,0.00,meteohub,2013-02-19 13:01:00,
2013-02-19 05:06:00,45.9,15.4,29.76,SW,225,2.0,2.0,29,0.00,,,0.00,meteohub,2013-02-19 13:06:00,
2013-02-19 05:11:00,45.5,15.8,29.76,West,270,2.0,2.0,30,0.00,,,0.00,meteohub,2013-02-19 13:11:00,
2013-02-19 05:16:00,45.3,16.5,29.76,SE,135,1.0,3.0,31,0.00,,,0.00,meteohub,2013-02-19 13:16:00,
2013-02-19 05:21:00,45.1,17.1,29.77,NW,315,1.0,3.0,32,0.00,,,0.00,meteohub,2013-02-19 13:21:00,
2013-02-19 05:26:00,45.0,17.6,29.77,SW,225,2.0,3.0,33,0.00,,,0.00,meteohub,2013-02-19 13:26:00,
2013-02-19 05:31:00,45.0,18.3,29.76,SW,225,2.0,3.0,34,0.00,,,0.00,meteohub,2013-02-19 13:31:00,
2013-02-19 05:36:00,44.8,18.1,29.76,West,270,2.0,2.0,34,0.00,,,0.00,meteohub,2013-02-19 13:36:00,
2013-02-19 05:41:00,44.8,18.1,29.77,West,270,2.0,3.0,34,0.00,,,0.00,meteohub,2013-02-19 13:41:00,
2013-02-19 05:46:00,44.8,18.1,29.77,North,0,2.0,3.0,34,0.00,,,0.00,meteohub,2013-02-19 13:46:00,
2013-02-19 05:52:00,44.8,18.9,29.76,East,90,1.0,3.0,35,0.00,,,0.00,meteohub,2013-02-19 13:52:00,
2013-02-19 05:57:00,44.8,19.4,29.76,East,90,2.0,2.0,36,0.00,,,0.00,meteohub,2013-02-19 13:57:00,
2013-02-19 06:02:00,44.6,19.9,29.76,South,180,2.0,2.0,37,0.00,,,0.00,meteohub,2013-02-19 14:02:00,
2013-02-19 06:07:00,44.6,21.2,29.76,South,180,2.0,2.0,39,0.00,,,0.00,meteohub,2013-02-19 14:07:00,
2013-02-19 06:12:00,44.4,22.8,29.76,SE,135,2.0,3.0,42,0.00,,,0.00,meteohub,2013-02-19 14:12:00,
2013-02-19 06:17:00,44.4,22.8,29.76,SE,135,2.0,3.0,42,0.00,,,0.00,meteohub,2013-02-19 14:17:00,
2013-02-19 06:22:00,44.4,22.8,29.76,SE,135,2.0,3.0,42,0.00,,,0.00,meteohub,2013-02-19 14:22:00,
2013-02-19 06:27:00,44.4,22.8,29.76,South,180,0.0,2.0,42,0.00,,,0.00,meteohub,2013-02-19 14:27:00,
2013-02-19 06:32:00,44.2,22.6,29.76,South,180,0.0,2.0,42,0.00,,,0.00,meteohub,2013-02-19 14:32:00,
2013-02-19 06:37:00,44.2,22.6,29.76,South,180,1.0,2.0,42,0.00,,,0.00,meteohub,2013-02-19 14:37:00,
2013-02-19 06:42:00,44.1,22.5,29.76,SE,135,2.0,2.0,42,0.00,,,0.00,meteohub,2013-02-19 14:42:00,
2013-02-19 06:47:00,43.9,22.8,29.75,East,90,3.0,3.0,43,0.00,,,0.00,meteohub,2013-02-19 14:47:00,
2013-02-19 06:52:00,43.7,22.6,29.75,SE,135,2.0,3.0,43,0.00,,,0.00,meteohub,2013-02-19 14:52:00,
2013-02-19 06:57:00,43.7,23.2,29.75,South,180,2.0,3.0,44,0.00,,,0.00,meteohub,2013-02-19 14:57:00,
2013-02-19 07:02:00,43.7,23.2,29.75,South,180,3.0,3.0,44,0.00,,,0.00,meteohub,2013-02-19 15:02:00,
2013-02-19 07:07:00,43.7,23.2,29.75,SE,135,3.0,3.0,44,0.00,,,0.00,meteohub,2013-02-19 15:07:00,
2013-02-19 07:12:00,43.5,23.5,29.75,SE,135,4.0,4.0,45,0.00,,,0.00,meteohub,2013-02-19 15:12:00,
2013-02-19 07:17:00,43.7,23.7,29.75,South,180,2.0,4.0,45,0.00,,,0.00,meteohub,2013-02-19 15:17:00,
2013-02-19 07:22:00,43.7,23.7,29.74,SE,135,4.0,4.0,45,0.00,,,0.00,meteohub,2013-02-19 15:22:00,
2013-02-19 07:27:00,43.9,23.9,29.75,East,90,2.0,4.0,45,0.00,,,0.00,meteohub,2013-02-19 15:27:00,
2013-02-19 07:32:00,44.1,24.1,29.75,South,180,2.0,4.0,45,0.00,,,0.00,meteohub,2013-02-19 15:32:00,
2013-02-19 07:37:00,44.2,24.3,29.74,SE,135,4.0,4.0,45,0.00,,,0.00,meteohub,2013-02-19 15:37:00,
2013-02-19 07:42:00,44.4,24.4,29.75,South,180,2.0,4.0,45,0.00,,,0.00,meteohub,2013-02-19 15:42:00,
2013-02-19 07:47:00,44.4,24.4,29.75,SW,225,3.0,4.0,45,0.00,,,0.00,meteohub,2013-02-19 15:47:00,
2013-02-19 07:52:00,44.4,24.4,29.75,South,180,2.0,4.0,45,0.00,,,0.00,meteohub,2013-02-19 15:52:00,
2013-02-19 07:57:00,44.6,24.1,29.75,SW,225,1.0,3.0,44,0.00,,,0.00,meteohub,2013-02-19 15:57:00,
2013-02-19 08:02:00,44.6,24.1,29.75,South,180,3.0,4.0,44,0.00,,,0.00,meteohub,2013-02-19 16:02:00,
2013-02-19 08:07:00,44.8,24.3,29.74,SE,135,2.0,4.0,44,0.00,,,0.00,meteohub,2013-02-19 16:07:00,
2013-02-19 08:12:00,44.8,24.3,29.74,South,180,2.0,4.0,44,0.00,,,0.00,meteohub,2013-02-19 16:12:00,
2013-02-19 08:17:00,45.1,25.0,29.74,SE,135,2.0,4.0,45,0.00,,,0.00,meteohub,2013-02-19 16:17:00,
2013-02-19 08:22:00,45.1,25.0,29.74,SE,135,2.0,4.0,45,0.00,,,0.00,meteohub,2013-02-19 16:22:00,
2013-02-19 08:27:00,45.7,26.1,29.74,ESE,113,2.0,3.0,46,0.00,,,0.00,meteohub,2013-02-19 16:27:00,
2013-02-19 08:32:00,46.0,25.9,29.74,South,180,2.0,2.0,45,0.00,,,0.00,meteohub,2013-02-19 16:32:00,
2013-02-19 08:37:00,46.2,26.1,29.73,South,180,2.0,4.0,45,0.00,,,0.00,meteohub,2013-02-19 16:37:00,
2013-02-19 08:42:00,46.6,27.0,29.73,South,180,4.0,4.0,46,0.00,,,0.00,meteohub,2013-02-19 16:42:00,
2013-02-19 08:47:00,46.8,26.6,29.73,South,180,5.0,5.0,45,0.00,,,0.00,meteohub,2013-02-19 16:47:00,
2013-02-19 08:52:00,47.1,26.8,29.73,NE,45,4.0,5.0,45,0.00,,,0.00,meteohub,2013-02-19 16:52:00,
2013-02-19 08:57:00,47.5,25.5,29.72,East,90,4.0,8.0,42,0.00,,,0.00,meteohub,2013-02-19 16:57:00,
2013-02-19 09:02:00,47.7,23.4,29.71,SW,225,4.0,8.0,38,0.00,,,0.00,meteohub,2013-02-19 17:02:00,
2013-02-19 09:07:00,48.0,23.0,29.71,SE,135,5.0,8.0,37,0.00,,,0.00,meteohub,2013-02-19 17:07:00,
2013-02-19 09:12:00,48.0,22.3,29.71,SE,135,3.0,8.0,36,0.00,,,0.00,meteohub,2013-02-19 17:12:00,
2013-02-19 09:17:00,48.4,21.4,29.71,SW,225,3.0,7.0,34,0.00,,,0.00,meteohub,2013-02-19 17:17:00,
2013-02-19 09:22:00,48.6,21.4,29.70,SE,135,3.0,8.0,34,0.00,,,0.00,meteohub,2013-02-19 17:22:00,
2013-02-19 09:27:00,48.6,19.9,29.70,West,270,3.0,8.0,32,0.00,,,0.00,meteohub,2013-02-19 17:27:00,
2013-02-19 09:32:00,48.7,20.1,29.70,South,180,4.0,8.0,32,0.00,,,0.00,meteohub,2013-02-19 17:32:00,
2013-02-19 09:37:00,48.7,20.1,29.70,West,270,3.0,7.0,32,0.00,,,0.00,meteohub,2013-02-19 17:37:00,
2013-02-19 09:42:00,49.1,19.8,29.70,SE,135,6.0,7.0,31,0.00,,,0.00,meteohub,2013-02-19 17:42:00,
2013-02-19 09:47:00,49.3,19.2,29.71,SE,135,4.0,6.0,30,0.00,,,0.00,meteohub,2013-02-19 17:47:00,
2013-02-19 09:52:00,49.6,19.4,29.70,NW,315,4.0,8.0,30,0.00,,,0.00,meteohub,2013-02-19 17:52:00,
2013-02-19 09:57:00,49.8,19.6,29.70,West,270,6.0,8.0,30,0.00,,,0.00,meteohub,2013-02-19 17:57:00,
2013-02-19 10:02:00,50.0,18.1,29.70,SW,225,4.0,11.0,28,0.00,,,0.00,meteohub,2013-02-19 18:02:00,
2013-02-19 10:07:00,50.2,17.4,29.70,South,180,4.0,11.0,27,0.00,,,0.00,meteohub,2013-02-19 18:07:00,
2013-02-19 10:12:00,50.4,16.7,29.70,WNW,293,10.0,11.0,26,0.00,,,0.00,meteohub,2013-02-19 18:12:00,
2013-02-19 10:17:00,50.4,16.7,29.69,West,270,13.0,13.0,26,0.00,,,0.00,meteohub,2013-02-19 18:17:00,
2013-02-19 10:22:00,50.5,16.9,29.69,North,0,7.0,13.0,26,0.00,,,0.00,meteohub,2013-02-19 18:22:00,
2013-02-19 10:27:00,50.7,17.1,29.69,SW,225,6.0,13.0,26,0.00,,,0.00,meteohub,2013-02-19 18:27:00,
2013-02-19 10:32:00,50.9,17.2,29.69,SW,225,5.0,13.0,26,0.00,,,0.00,meteohub,2013-02-19 18:32:00,
2013-02-19 10:37:00,51.4,17.6,29.68,South,180,7.0,12.0,26,0.00,,,0.00,meteohub,2013-02-19 18:37:00,
2013-02-19 10:42:00,51.6,16.9,29.68,South,180,6.0,13.0,25,0.00,,,0.00,meteohub,2013-02-19 18:42:00,
2013-02-19 10:47:00,52.0,16.3,29.68,WSW,248,7.0,13.0,24,0.00,,,0.00,meteohub,2013-02-19 18:47:00,
2013-02-19 10:52:00,52.0,16.3,29.68,East,90,4.0,13.0,24,0.00,,,0.00,meteohub,2013-02-19 18:52:00,
2013-02-19 10:57:00,52.0,16.3,29.68,West,270,11.0,11.0,24,0.00,,,0.00,meteohub,2013-02-19 18:57:00,
2013-02-19 11:02:00,52.0,16.3,29.67,SW,225,9.0,11.0,24,0.00,,,0.00,meteohub,2013-02-19 19:02:00,
2013-02-19 11:07:00,52.2,16.5,29.66,SE,135,10.0,11.0,24,0.00,,,0.00,meteohub,2013-02-19 19:07:00,
2013-02-19 11:12:00,52.7,16.0,29.66,West,270,11.0,15.0,23,0.00,,,0.00,meteohub,2013-02-19 19:12:00,
2013-02-19 11:17:00,52.9,16.2,29.66,SW,225,13.0,15.0,23,0.00,,,0.00,meteohub,2013-02-19 19:17:00,
2013-02-19 11:22:00,52.7,16.0,29.66,SW,225,11.0,15.0,23,0.00,,,0.00,meteohub,2013-02-19 19:22:00,
2013-02-19 11:27:00,52.3,15.6,29.66,NW,315,7.0,13.0,23,0.00,,,0.00,meteohub,2013-02-19 19:27:00,
2013-02-19 11:32:00,52.3,15.6,29.65,SW,225,11.0,14.0,23,0.00,,,0.00,meteohub,2013-02-19 19:32:00,
2013-02-19 11:37:00,52.2,15.4,29.65,West,270,10.0,14.0,23,0.00,,,0.00,meteohub,2013-02-19 19:37:00,
2013-02-19 11:42:00,51.4,15.8,29.65,North,0,10.0,15.0,24,0.00,,,0.00,meteohub,2013-02-19 19:42:00,
2013-02-19 11:47:00,50.7,16.2,29.65,West,270,7.0,15.0,25,0.00,,,0.00,meteohub,2013-02-19 19:47:00,
2013-02-19 11:52:00,49.6,17.1,29.65,West,270,8.0,15.0,27,0.01,,,0.01,meteohub,2013-02-19 19:52:00,
2013-02-19 11:57:00,48.9,18.0,29.65,West,270,8.0,14.0,29,0.02,,,0.02,meteohub,2013-02-19 19:57:00,
2013-02-19 12:02:00,48.2,19.0,29.65,SW,225,8.0,13.0,31,0.02,,,0.02,meteohub,2013-02-19 20:02:00,
2013-02-19 12:07:00,47.8,20.8,29.65,NE,45,4.0,13.0,34,0.04,,,0.04,meteohub,2013-02-19 20:07:00,
2013-02-19 12:12:00,47.5,21.2,29.65,West,270,11.0,13.0,35,0.05,,,0.05,meteohub,2013-02-19 20:12:00,
2013-02-19 12:17:00,47.3,21.7,29.65,NW,315,11.0,12.0,36,0.05,,,0.05,meteohub,2013-02-19 20:17:00,
2013-02-19 12:22:00,46.6,21.7,29.65,West,270,15.0,15.0,37,0.07,,,0.07,meteohub,2013-02-19 20:22:00,
2013-02-19 12:27:00,45.9,21.7,29.65,SW,225,17.0,21.0,38,0.08,,,0.08,meteohub,2013-02-19 20:27:00,
2013-02-19 12:32:00,45.5,23.2,29.65,West,270,19.0,30.0,41,0.11,,,0.11,meteohub,2013-02-19 20:32:00,
2013-02-19 12:37:00,45.3,23.5,29.64,NW,315,11.0,30.0,42,0.13,,,0.13,meteohub,2013-02-19 20:37:00,
2013-02-19 12:42:00,45.3,24.1,29.64,West,270,11.0,21.0,43,0.14,,,0.14,meteohub,2013-02-19 20:42:00,
2013-02-19 12:47:00,45.1,23.9,29.63,NW,315,10.0,19.0,43,0.14,,,0.15,meteohub,2013-02-19 20:47:00,
2013-02-19 12:52:00,45.3,24.6,29.63,West,270,11.0,15.0,44,0.14,,,0.15,meteohub,2013-02-19 20:52:00,
2013-02-19 12:57:00,45.5,25.3,29.63,West,270,13.0,15.0,45,0.13,,,0.15,meteohub,2013-02-19 20:57:00,
2013-02-19 13:02:00,45.5,26.4,29.64,NW,315,12.0,13.0,47,0.15,,,0.19,meteohub,2013-02-19 21:02:00,
2013-02-19 13:07:00,45.0,25.0,29.64,NW,315,9.0,13.0,45,0.15,,,0.19,meteohub,2013-02-19 21:07:00,
2013-02-19 13:12:00,45.0,25.0,29.64,WNW,293,6.0,13.0,45,0.14,,,0.19,meteohub,2013-02-19 21:12:00,
2013-02-19 13:17:00,45.1,25.0,29.63,NW,315,7.0,13.0,45,0.14,,,0.20,meteohub,2013-02-19 21:17:00,
2013-02-19 13:22:00,45.1,25.5,29.63,West,270,8.0,10.0,46,0.13,,,0.20,meteohub,2013-02-19 21:22:00,
2013-02-19 13:27:00,45.1,25.5,29.63,NW,315,8.0,9.0,46,0.09,,,0.20,meteohub,2013-02-19 21:27:00,
2013-02-19 13:32:00,45.1,25.5,29.63,West,270,12.0,12.0,46,0.08,,,0.20,meteohub,2013-02-19 21:32:00,
2013-02-19 13:37:00,45.0,24.4,29.63,West,270,8.0,14.0,44,0.08,,,0.21,meteohub,2013-02-19 21:37:00,
2013-02-19 13:42:00,45.0,24.4,29.62,NW,315,8.0,14.0,44,0.07,,,0.21,meteohub,2013-02-19 21:42:00,
2013-02-19 13:47:00,45.0,24.4,29.63,West,270,7.0,14.0,44,0.06,,,0.21,meteohub,2013-02-19 21:47:00,
2013-02-19 13:52:00,45.0,24.4,29.62,West,270,6.0,11.0,44,0.06,,,0.21,meteohub,2013-02-19 21:52:00,
2013-02-19 13:57:00,45.1,24.4,29.62,West,270,4.0,10.0,44,0.05,,,0.21,meteohub,2013-02-19 21:57:00,
2013-02-19 14:02:00,45.1,24.4,29.62,NW,315,4.0,8.0,44,0.02,,,0.21,meteohub,2013-02-19 22:02:00,
2013-02-19 14:07:00,45.3,24.6,29.62,West,270,7.0,8.0,44,0.02,,,0.21,meteohub,2013-02-19 22:07:00,
2013-02-19 14:12:00,45.1,24.4,29.62,West,270,6.0,10.0,44,0.06,,,0.25,meteohub,2013-02-19 22:12:00,
2013-02-19 14:17:00,44.8,24.3,29.62,West,270,16.0,16.0,44,0.05,,,0.25,meteohub,2013-02-19 22:17:00,
2013-02-19 14:22:00,44.4,23.9,29.62,NW,315,11.0,16.0,44,0.05,,,0.25,meteohub,2013-02-19 22:22:00,
2013-02-19 14:27:00,44.4,23.9,29.62,West,270,11.0,16.0,44,0.05,,,0.25,meteohub,2013-02-19 22:27:00,
2013-02-19 14:32:00,44.6,23.0,29.63,WNW,293,11.0,16.0,42,0.05,,,0.25,meteohub,2013-02-19 22:32:00,
2013-02-19 14:37:00,44.6,23.0,29.63,WNW,293,11.0,15.0,42,0.04,,,0.25,meteohub,2013-02-19 22:37:00,
2013-02-19 14:42:00,44.8,20.1,29.63,NW,315,13.0,17.0,37,0.04,,,0.25,meteohub,2013-02-19 22:42:00,
2013-02-19 14:47:00,44.8,18.1,29.62,West,270,9.0,17.0,34,0.04,,,0.25,meteohub,2013-02-19 22:47:00,
2013-02-19 14:52:00,44.8,16.7,29.62,NW,315,11.0,17.0,32,0.04,,,0.25,meteohub,2013-02-19 22:52:00,
2013-02-19 14:57:00,45.1,16.3,29.62,West,270,12.0,16.0,31,0.04,,,0.25,meteohub,2013-02-19 22:57:00,
2013-02-19 15:02:00,45.5,16.5,29.62,NW,315,17.0,17.0,31,0.04,,,0.25,meteohub,2013-02-19 23:02:00,
2013-02-19 15:07:00,45.7,15.3,29.62,NW,315,11.0,17.0,29,0.04,,,0.25,meteohub,2013-02-19 23:07:00,
2013-02-19 15:12:00,45.7,14.4,29.62,NW,315,11.0,17.0,28,0.00,,,0.25,meteohub,2013-02-19 23:12:00,
2013-02-19 15:17:00,46.2,16.5,29.61,NW,315,12.0,17.0,30,0.00,,,0.25,meteohub,2013-02-19 23:17:00,
2013-02-19 15:22:00,46.8,17.8,29.61,NW,315,14.0,17.0,31,0.00,,,0.25,meteohub,2013-02-19 23:22:00,
2013-02-19 15:28:00,47.1,15.6,29.62,West,270,14.0,17.0,28,0.00,,,0.25,meteohub,2013-02-19 23:28:00,
2013-02-19 15:33:00,47.5,15.1,29.61,NW,315,12.0,18.0,27,0.00,,,0.25,meteohub,2013-02-19 23:33:00,
2013-02-19 15:38:00,47.8,14.5,29.61,NW,315,18.0,18.0,26,0.01,,,0.26,meteohub,2013-02-19 23:38:00,
2013-02-19 15:43:00,47.5,14.4,29.61,NW,315,19.0,19.0,26,0.01,,,0.26,meteohub,2013-02-19 23:43:00,
2013-02-19 15:48:00,46.8,13.6,29.61,North,0,14.0,19.0,26,0.01,,,0.26,meteohub,2013-02-19 23:48:00,
2013-02-19 15:53:00,46.4,13.3,29.61,WNW,293,13.0,19.0,26,0.01,,,0.26,meteohub,2013-02-19 23:53:00,
2013-02-19 15:58:00,45.9,9.1,29.60,NW,315,8.0,19.0,22,0.01,,,0.26,meteohub,2013-02-19 23:58:00,
2013-02-19 16:03:00,45.9,9.1,29.60,NW,315,8.0,17.0,22,0.01,,,0.26,meteohub,2013-02-20 00:03:00,
2013-02-19 16:08:00,46.6,12.6,29.60,NW,315,14.0,17.0,25,0.01,,,0.00,meteohub,2013-02-20 00:08:00,
2013-02-19 16:13:00,46.6,12.6,29.60,West,270,9.0,17.0,25,0.01,,,0.00,meteohub,2013-02-20 00:13:00,
2013-02-19 16:18:00,46.6,13.5,29.60,West,270,9.0,15.0,26,0.01,,,0.00,meteohub,2013-02-20 00:18:00,
2013-02-19 16:23:00,46.4,13.3,29.60,WSW,248,12.0,15.0,26,0.01,,,0.00,meteohub,2013-02-20 00:23:00,
2013-02-19 16:29:00,46.2,10.4,29.59,West,270,12.0,15.0,23,0.01,,,0.00,meteohub,2013-02-20 00:29:00,
2013-02-19 16:34:00,46.2,10.4,29.60,North,0,15.0,15.0,23,0.00,,,0.00,meteohub,2013-02-20 00:34:00,
2013-02-19 16:39:00,46.0,10.2,29.60,North,0,13.0,16.0,23,0.00,,,0.00,meteohub,2013-02-20 00:39:00,
2013-02-19 16:44:00,46.0,10.2,29.60,NW,315,12.0,19.0,23,0.00,,,0.00,meteohub,2013-02-20 00:44:00,
2013-02-19 16:49:00,46.0,10.2,29.60,NW,315,15.0,20.0,23,0.00,,,0.00,meteohub,2013-02-20 00:49:00,
2013-02-19 16:54:00,46.2,9.5,29.59,NW,315,20.0,20.0,22,0.00,,,0.00,meteohub,2013-02-20 00:54:00,
2013-02-19 16:59:00,46.6,12.6,29.59,NW,315,14.0,20.0,25,0.00,,,0.00,meteohub,2013-02-20 00:59:00,
2013-02-19 17:04:00,46.4,12.6,29.60,NW,315,21.0,21.0,25,0.00,,,0.00,meteohub,2013-02-20 01:04:00,
2013-02-19 17:09:00,46.2,9.5,29.60,North,0,21.0,21.0,22,0.00,,,0.00,meteohub,2013-02-20 01:09:00,
2013-02-19 17:14:00,46.0,9.3,29.60,NW,315,13.0,21.0,22,0.00,,,0.00,meteohub,2013-02-20 01:14:00,
2013-02-19 17:19:00,45.7,10.0,29.60,North,0,15.0,21.0,23,0.00,,,0.00,meteohub,2013-02-20 01:19:00,
2013-02-19 17:25:00,45.7,10.0,29.60,West,270,17.0,21.0,23,0.00,,,0.00,meteohub,2013-02-20 01:25:00,
2013-02-19 17:30:00,45.3,8.8,29.60,North,0,19.0,19.0,22,0.00,,,0.00,meteohub,2013-02-20 01:30:00,
2013-02-19 17:35:00,45.0,9.3,29.60,NW,315,18.0,22.0,23,0.00,,,0.00,meteohub,2013-02-20 01:35:00,
2013-02-19 17:40:00,44.2,8.8,29.60,North,0,13.0,22.0,23,0.00,,,0.00,meteohub,2013-02-20 01:40:00,
2013-02-19 17:45:00,43.7,9.3,29.60,NW,315,8.0,20.0,24,0.00,,,0.00,meteohub,2013-02-20 01:45:00,
2013-02-19 17:50:00,43.7,9.3,29.59,West,270,6.0,20.0,24,0.00,,,0.00,meteohub,2013-02-20 01:50:00,
2013-02-19 17:55:00,43.5,10.0,29.59,West,270,9.0,14.0,25,0.00,,,0.00,meteohub,2013-02-20 01:55:00,
2013-02-19 18:00:00,43.7,10.2,29.59,West,270,9.0,9.0,25,0.00,,,0.00,meteohub,2013-02-20 02:00:00,
2013-02-19 18:05:00,43.7,10.2,29.60,West,270,9.0,9.0,25,0.00,,,0.00,meteohub,2013-02-20 02:05:00,
2013-02-19 18:10:00,44.1,10.4,29.60,West,270,16.0,16.0,25,0.00,,,0.00,meteohub,2013-02-20 02:10:00,
2013-02-19 18:16:00,44.2,10.6,29.60,NW,315,21.0,21.0,25,0.00,,,0.00,meteohub,2013-02-20 02:16:00,
2013-02-19 18:21:00,44.1,10.4,29.60,NW,315,17.0,22.0,25,0.00,,,0.00,meteohub,2013-02-20 02:21:00,
2013-02-19 18:26:00,43.3,9.9,29.60,NW,315,14.0,22.0,25,0.00,,,0.00,meteohub,2013-02-20 02:26:00,
2013-02-19 18:31:00,43.3,9.9,29.60,NW,315,14.0,22.0,25,0.00,,,0.00,meteohub,2013-02-20 02:31:00,
2013-02-19 18:36:00,43.7,9.3,29.60,West,270,9.0,19.0,24,0.00,,,0.00,meteohub,2013-02-20 02:36:00,
2013-02-19 18:41:00,43.9,9.3,29.60,North,0,9.0,15.0,24,0.00,,,0.00,meteohub,2013-02-20 02:41:00,
2013-02-19 18:46:00,43.9,9.3,29.60,NW,315,10.0,15.0,24,0.00,,,0.00,meteohub,2013-02-20 02:46:00,
2013-02-19 18:51:00,44.1,10.4,29.60,NW,315,11.0,15.0,25,0.00,,,0.00,meteohub,2013-02-20 02:51:00,
2013-02-19 18:56:00,43.9,10.4,29.60,West,270,8.0,14.0,25,0.00,,,0.00,meteohub,2013-02-20 02:56:00,
2013-02-19 19:01:00,44.1,10.4,29.60,NW,315,12.0,14.0,25,0.00,,,0.00,meteohub,2013-02-20 03:01:00,
2013-02-19 19:06:00,44.1,10.4,29.60,North,0,11.0,14.0,25,0.00,,,0.00,meteohub,2013-02-20 03:06:00,
2013-02-19 19:12:00,44.1,10.4,29.60,WNW,293,10.0,14.0,25,0.00,,,0.00,meteohub,2013-02-20 03:12:00,
2013-02-19 19:17:00,44.1,10.4,29.60,NW,315,11.0,13.0,25,0.00,,,0.00,meteohub,2013-02-20 03:17:00,
2013-02-19 19:22:00,44.2,9.7,29.60,West,270,12.0,13.0,24,0.00,,,0.00,meteohub,2013-02-20 03:22:00,
2013-02-19 19:27:00,44.2,9.7,29.61,North,0,20.0,20.0,24,0.00,,,0.00,meteohub,2013-02-20 03:27:00,
2013-02-19 19:32:00,43.7,10.2,29.61,NW,315,12.0,20.0,25,0.00,,,0.00,meteohub,2013-02-20 03:32:00,
2013-02-19 19:37:00,43.3,9.9,29.61,NW,315,17.0,20.0,25,0.00,,,0.00,meteohub,2013-02-20 03:37:00,
2013-02-19 19:42:00,43.2,9.7,29.60,NW,315,9.0,20.0,25,0.00,,,0.00,meteohub,2013-02-20 03:42:00,
2013-02-19 19:47:00,43.0,9.5,29.61,NW,315,11.0,18.0,25,0.00,,,0.00,meteohub,2013-02-20 03:47:00,
2013-02-19 19:52:00,42.8,9.3,29.61,NW,315,9.0,18.0,25,0.00,,,0.00,meteohub,2013-02-20 03:52:00,
2013-02-19 19:57:00,42.6,10.0,29.61,NW,315,7.0,12.0,26,0.00,,,0.00,meteohub,2013-02-20 03:57:00,
2013-02-19 20:02:00,42.6,10.0,29.61,NW,315,6.0,11.0,26,0.00,,,0.00,meteohub,2013-02-20 04:02:00,
2013-02-19 20:07:00,42.6,10.0,29.61,NW,315,6.0,9.0,26,0.00,,,0.00,meteohub,2013-02-20 04:07:00,
2013-02-19 20:12:00,42.4,10.0,29.61,West,270,5.0,8.0,26,0.00,,,0.00,meteohub,2013-02-20 04:12:00,
2013-02-19 20:17:00,42.6,10.0,29.61,NW,315,9.0,9.0,26,0.00,,,0.00,meteohub,2013-02-20 04:17:00,
2013-02-19 20:22:00,42.6,10.0,29.61,West,270,4.0,9.0,26,0.00,,,0.00,meteohub,2013-02-20 04:22:00,
2013-02-19 20:27:00,42.6,10.0,29.61,West,270,4.0,9.0,26,0.00,,,0.00,meteohub,2013-02-20 04:27:00,
2013-02-19 20:32:00,42.6,10.0,29.62,West,270,2.0,9.0,26,0.00,,,0.00,meteohub,2013-02-20 04:32:00,
2013-02-19 20:37:00,42.6,10.0,29.61,West,270,4.0,6.0,26,0.00,,,0.00,meteohub,2013-02-20 04:37:00,
2013-02-19 20:42:00,42.4,10.0,29.62,NW,315,4.0,4.0,26,0.00,,,0.00,meteohub,2013-02-20 04:42:00,
2013-02-19 20:47:00,42.4,10.0,29.62,NW,315,4.0,5.0,26,0.00,,,0.00,meteohub,2013-02-20 04:47:00,
2013-02-19 20:52:00,42.3,9.9,29.61,NW,315,3.0,5.0,26,0.00,,,0.00,meteohub,2013-02-20 04:52:00,
2013-02-19 20:57:00,42.3,9.9,29.62,North,0,5.0,5.0,26,0.00,,,0.00,meteohub,2013-02-20 04:57:00,
2013-02-19 21:00:00,42.1,9.7,29.62,NW,315,4.0,5.0,26,0.00,,,0.00,meteohub,2013-02-20 05:00:00,
2013-02-19 21:01:00,42.1,9.7,29.62,NW,315,4.0,6.0,26,0.00,,,0.00,meteohub,2013-02-20 05:01:00,
2013-02-19 21:06:00,42.3,9.9,29.62,NW,315,5.0,8.0,26,0.00,,,0.00,meteohub,2013-02-20 05:06:00,
2013-02-19 21:11:00,42.3,9.9,29.62,West,270,3.0,8.0,26,0.00,,,0.00,meteohub,2013-02-20 05:11:00,
2013-02-19 21:17:00,42.1,9.7,29.62,North,0,4.0,8.0,26,0.00,,,0.00,meteohub,2013-02-20 05:17:00,
2013-02-19 21:22:00,42.3,9.9,29.62,West,270,3.0,5.0,26,0.00,,,0.00,meteohub,2013-02-20 05:22:00,
2013-02-19 21:27:00,42.3,10.6,29.62,West,270,3.0,6.0,27,0.00,,,0.00,meteohub,2013-02-20 05:27:00,
2013-02-19 21:32:00,42.3,10.6,29.62,NW,315,3.0,6.0,27,0.00,,,0.00,meteohub,2013-02-20 05:32:00,
2013-02-19 21:37:00,42.3,10.6,29.62,NW,315,1.0,6.0,27,0.00,,,0.00,meteohub,2013-02-20 05:37:00,
2013-02-19 21:42:00,42.1,10.6,29.62,NW,315,1.0,4.0,27,0.00,,,0.00,meteohub,2013-02-20 05:42:00,
2013-02-19 21:47:00,41.9,10.4,29.62,North,0,0.0,3.0,27,0.00,,,0.00,meteohub,2013-02-20 05:47:00,
2013-02-19 21:52:00,41.7,10.2,29.62,NW,315,2.0,2.0,27,0.00,,,0.00,meteohub,2013-02-20 05:52:00,
2013-02-19 21:57:00,41.4,9.9,29.62,NW,315,1.0,2.0,27,0.00,,,0.00,meteohub,2013-02-20 05:57:00,
2013-02-19 22:02:00,41.0,9.5,29.62,NE,45,1.0,2.0,27,0.00,,,0.00,meteohub,2013-02-20 06:02:00,
2013-02-19 22:07:00,41.0,9.5,29.63,NE,45,1.0,2.0,27,0.00,,,0.00,meteohub,2013-02-20 06:07:00,
2013-02-19 22:12:00,40.5,10.8,29.63,NW,315,0.0,2.0,29,0.00,,,0.00,meteohub,2013-02-20 06:12:00,
2013-02-19 22:17:00,40.1,10.4,29.63,NW,315,0.0,1.0,29,0.00,,,0.00,meteohub,2013-02-20 06:17:00,
2013-02-19 22:22:00,39.9,10.2,29.63,North,0,1.0,1.0,29,0.00,,,0.00,meteohub,2013-02-20 06:22:00,
2013-02-19 22:27:00,39.9,10.9,29.63,North,0,2.0,2.0,30,0.00,,,0.00,meteohub,2013-02-20 06:27:00,
2013-02-19 22:32:00,39.9,10.9,29.63,West,270,2.0,3.0,30,0.00,,,0.00,meteohub,2013-02-20 06:32:00,
2013-02-19 22:37:00,39.9,10.9,29.62,NW,315,4.0,4.0,30,0.00,,,0.00,meteohub,2013-02-20 06:37:00,
2013-02-19 22:42:00,39.9,10.9,29.62,West,270,2.0,4.0,30,0.00,,,0.00,meteohub,2013-02-20 06:42:00,
2013-02-19 22:47:00,39.9,10.9,29.62,West,270,3.0,4.0,30,0.00,,,0.00,meteohub,2013-02-20 06:47:00,
2013-02-19 22:52:00,39.9,10.9,29.62,West,270,3.0,4.0,30,0.00,,,0.00,meteohub,2013-02-20 06:52:00,
2013-02-19 22:57:00,39.7,10.8,29.62,West,270,2.0,4.0,30,0.00,,,0.00,meteohub,2013-02-20 06:57:00,
2013-02-19 23:02:00,39.6,10.8,29.62,West,270,2.0,4.0,30,0.00,,,0.00,meteohub,2013-02-20 07:02:00,
2013-02-19 23:07:00,39.6,10.8,29.63,West,270,3.0,4.0,30,0.00,,,0.00,meteohub,2013-02-20 07:07:00,
2013-02-19 23:12:00,39.6,10.8,29.63,West,270,2.0,4.0,30,0.00,,,0.00,meteohub,2013-02-20 07:12:00,
2013-02-19 23:17:00,39.4,10.6,29.63,West,270,3.0,3.0,30,0.00,,,0.00,meteohub,2013-02-20 07:17:00,
2013-02-19 23:22:00,39.6,10.8,29.63,West,270,2.0,3.0,30,0.00,,,0.00,meteohub,2013-02-20 07:22:00,
2013-02-19 23:27:00,39.6,10.8,29.63,West,270,2.0,3.0,30,0.00,,,0.00,meteohub,2013-02-20 07:27:00,
2013-02-19 23:32:00,39.4,10.6,29.63,West,270,3.0,3.0,30,0.00,,,0.00,meteohub,2013-02-20 07:32:00,
2013-02-19 23:37:00,39.4,11.3,29.63,West,270,5.0,5.0,31,0.00,,,0.00,meteohub,2013-02-20 07:37:00,
2013-02-19 23:42:00,39.6,11.5,29.63,West,270,4.0,5.0,31,0.00,,,0.00,meteohub,2013-02-20 07:42:00,
2013-02-19 23:47:00,39.7,11.5,29.63,West,270,2.0,5.0,31,0.00,,,0.00,meteohub,2013-02-20 07:47:00,
2013-02-19 23:52:00,39.7,11.5,29.64,West,270,3.0,5.0,31,0.00,,,0.00,meteohub,2013-02-20 07:52:00,
2013-02-19 23:57:00,39.7,11.5,29.64,West,270,2.0,4.0,31,0.00,,,0.00,meteohub,2013-02-20 07:57:00,